Location: Bouchavesnes-Bergen
(49.9859°N, 2.9203°E)
Time: 05:15:51
(UTC+00:00)

Cosmos 2184 Rocket - Pass Details

Date: 09 March 2021
Orbit: 960 x 1001 km, 82.9° (Epoch: 11 April)

Event Time Altitude Azimuth Distance (km) Brightness Sun altitude
Rises 05:15:25 0° 347° (NNW) 3,709 7.0 -10.3°
Reaches altitude 10° 05:18:00 10° 342° (NNW) 2,762 6.2 -9.9°
Maximum altitude 05:24:05 51° 269° (W) 1,241 4.2 -9.0°
Drops below altitude 10° 05:30:11 10° 196° (SSW) 2,763 6.2 -8.0°
Sets 05:32:46 0° 191° (S) 3,711 6.9 -7.6°
